Location: Unspecified
(58.9933°N, 5.6375°E)
Time: 06:16:40
(UTC+02:00)

Cosmos 1674 - Visible Passes

Search period start: 23 May 2015 00:00
Search period end: 02 June 2015 00:00
Orbit: 507 x 532 km, 82.5° (Epoch: 22 May)

Date Brightness Start Highest point End Pass type
(mag) Time Alt. Az. Time Alt. Az. Time Alt. Az.
23 May 5.4 01:44:08 10° E 01:45:27 12° E 01:46:54 10° ENE visible
23 May 3.0 03:16:39 10° S 03:20:34 70° E 03:24:30 10° NNE visible
24 May 5.5 01:31:09 10° E 01:31:42 10° E 01:32:25 10° ENE visible
24 May 3.1 03:02:52 10° S 03:06:45 62° E 03:10:40 10° NNE visible
25 May 3.3 02:49:06 10° S 02:52:57 55° E 02:56:49 10° NNE visible
26 May 3.4 02:35:21 10° S 02:39:08 48° E 02:42:56 10° NNE visible
27 May 3.6 02:21:37 10° SSE 02:25:19 43° E 02:29:04 10° NNE visible
28 May 3.8 02:07:53 10° SSE 02:11:29 38° E 02:15:10 10° NNE visible
29 May 3.9 01:54:07 10° SSE 01:57:40 34° E 02:01:16 10° NNE visible
29 May 3.8 03:29:49 10° SW 03:33:29 36° WNW 03:37:09 10° N visible
30 May 4.1 01:40:24 10° SSE 01:43:51 30° E 01:47:20 10° NNE visible
30 May 3.6 03:15:51 10° SW 03:19:35 40° WNW 03:23:20 10° N visible
31 May 4.2 01:26:42 10° SSE 01:30:01 27° E 01:33:23 10° NNE visible
31 May 3.5 03:01:54 10° SW 03:05:41 45° WNW 03:09:29 10° N visible
01 Jun 4.4 01:13:01 10° SE 01:16:11 24° E 01:19:25 10° NNE visible
01 Jun 3.3 02:47:57 10° SSW 02:51:47 50° WNW 02:55:37 10° N visible
